STARLINK-32945, 63118

Orbit data source: Space-Track

STARLINK-32945, 63118 is a payload satellite owned by SpaceX/Seattle (US) in LEO that was launched on Thu, 27 Feb 2025 UTC via an FALCON 9 launch vehicle from the Air Force Eastern Test Range (AFETR). Payload-class satellites include a variety of spacecraft equipped with specific instruments for various scientific and technological missions. These include communications satellites like Starlink; space stations such as the ISS; scientific satellites like the Hubble; Earth observation satellites from companies like Planet Labs, Umbra, and HawkEye 360; GPS; miniature CubeSats for education and research; and military/defense satellites.

Loading next visibility...
Identifier
63118, 2025-039Q
Orbit
LEO
Country
Flag of USUS
Related business
Manufacturer
SpaceX/Seattle
Mission
Operational Commercial Communications
Bus & Motor
STARLINK V2M, Unknown motor
Mass
730 kg wet, ~700 kg dry
Launch date (UTC)
2025-02-27 (11 months ago)
Launch vehicle
FALCON 9
Launch site
Air Force Eastern Test Range (AFETR)
Object type
Payload
Rocket body
Debris
Shape & HBR
Box + 2 Pan, 17.7 m
Radar Cross Section
33.884 m², Large (>1 m²)

Expand to show TLE details & history
Last TLE update: 8 hours ago

TLE from 8 hours ago
0 STARLINK-32945
1 63118U 25039Q   26035.17890191  .00028782  00000-0  10511-2 0  9997
2 63118  42.9987 201.8706 0001773 271.1803  88.8845 15.27588599 52944
Epoch: 2026-02-04T04:17Z
TLE epoch observation values (Epoch: 2026-02-04T04:17:37.125Z)
Latitude
-0.00003°
Longitude
3.11668°
Altitude
482.775 km
Speed
7.626 km/s
True Right ascension
13h 27m 28s
True Declination
0° 00' 00"
Sunlit
Object was in full shadow at epoch
Visualization orbit readout
Latitude
Unknown
Longitude
Unknown
Altitude
Unknown
Speed
Unknown
Apparent Right ascension
Unknown
Apparent Declination
Unknown
Sunlit
N/A
Visualization observer readout
Local Sidereal Time
14:00:41
Azimuth
Unknown
Elevation
Unknown
Doppler factor
Unknown
Orbital elements
Apogee altitude
486.186 km
Perigee altitude
483.752 km
Semi-major axis
6,863.106 km
Eccentricity
0.00018
Inclination
42.9987°
RAAN
201.8706°
Arg. of periapsis
271.1803°
True anomaly
88.90481°
Mean anomaly
88.8845°
Eccentric anomaly
88.89466°
Mean motion
3.81735 °/min
Orbital period
94.31 mins
BSTAR
0.0010511
Loading maneuver chart data...
Computing Atmospheric mass density...
Loading historical data...
Loading historical data...
Loading historical data...
Loading historical data...
Loading historical data...
Loading historical data...
Loading historical data...

Documentation

Showing up to 5 results
|